Home > Weather > Nzérékoré > Past weeks

Flag for Guinea Weather for the Past 2 Weeks in Nzérékoré, Guinea

Now
90 °F

Passing clouds.


Feels Like: 103 °F
Forecast: N/A
Wind: 13 mph from Southwest

Location: Roberts Field

Current Time: May 4, 2016 at 4:26:19 PM

Latest Report: May 4, 2016 at 4:00 PM


Visibility: N/A

Pressure: 29.80 "Hg

Humidity: 67%

Dew Point: 77 °F

Location of NzérékoréLocation

Historic Weather in Nzérékoré — Graph

°F

Nzérékoré Temperature Yesterday

Maximum temperature yesterday: 91 °F (at 1:30 PM)
Minimum temperature yesterday: 73 °F (at 2:30 AM)
Average temperature yesterday: 81 °F

High & Low Weather Summary for the Past Weeks

 TemperatureHumidityPressure
High95 °F (Apr 27, 3:30 PM)100% (May 1, 7:00 AM)29.95 "Hg (May 1, 7:00 AM)
Low73 °F (May 3, 2:30 AM)56% (Apr 27, 1:30 PM)29.74 "Hg (Apr 25, 3:00 PM)
Average83 °F82%29.83 "Hg
* Reported Apr 19 7:00 PM — May 4 3:00 PM, Nzérékoré, Weather by CustomWeather, © 2016

Note: Actual official high and low records may vary slightly from our data, if they occured in-between our weather recording intervals... More about our weather records

Advertising

Nzérékoré Weather History for the Previous 24 Hours

Scroll right to see more
 ConditionsComfort  
Time TempWeatherWind HumidityBarometerVisibility
3:00 PM
Wed, May 4
91 °FScattered clouds.14 mph67%29.80 "HgN/A
2:30 PM90 °FScattered clouds.9 mph67%29.83 "HgN/A
2:00 PM90 °FPartly sunny.12 mph67%29.83 "HgN/A
1:30 PM91 °FPartly sunny.5 mph59%29.83 "HgN/A
1:00 PM91 °FPartly sunny.12 mph59%29.86 "HgN/A
12:00 PM90 °FScattered clouds.6 mph63%29.89 "HgN/A
11:30 AM88 °FScattered clouds.6 mph62%29.89 "HgN/A
11:00 AM88 °FScattered clouds.7 mph66%29.92 "HgN/A
10:30 AM86 °FScattered clouds.No wind66%29.92 "HgN/A
10:00 AM84 °FScattered clouds.No wind70%29.92 "HgN/A
9:30 AM81 °FPassing clouds.No wind79%29.92 "HgN/A
9:00 AM79 °FPassing clouds.No wind84%29.92 "HgN/A
8:00 AM75 °FPassing clouds.9 mph94%29.89 "HgN/A
7:30 AM75 °FScattered clouds.7 mph94%29.89 "HgN/A
7:00 AM75 °FPassing clouds.7 mph94%29.89 "HgN/A
6:30 AM75 °FPassing clouds.7 mph94%29.86 "HgN/A
6:00 AM75 °FPassing clouds.7 mph94%29.86 "HgN/A
5:30 AM75 °FPassing clouds.7 mph94%29.86 "HgN/A
5:00 AM75 °FPassing clouds.7 mph94%29.86 "HgN/A
4:30 AM75 °FPassing clouds.9 mph94%29.86 "HgN/A
4:00 AM77 °FPassing clouds.8 mph94%29.86 "HgN/A
3:30 AM77 °FPassing clouds.7 mph94%29.83 "HgN/A
3:00 AM79 °FPassing clouds.9 mph94%29.83 "HgN/A
2:30 AM79 °FPassing clouds.9 mph94%29.86 "HgN/A
2:00 AM79 °FPassing clouds.No wind94%29.89 "HgN/A
1:30 AM79 °FPassing clouds.No wind94%29.89 "HgN/A
1:00 AM79 °FPassing clouds.No wind94%29.92 "HgN/A
12:30 AM79 °FPassing clouds.No wind94%29.92 "HgN/A
12:00 AM79 °FPassing clouds.No wind94%29.92 "HgN/A
9:00 PM
Tue, May 3
81 °FPassing clouds.No wind89%29.89 "HgN/A
8:00 PM81 °FPassing clouds.No wind89%29.83 "HgN/A
7:00 PM82 °FPartly sunny.No wind84%29.83 "HgN/A
6:00 PM84 °FPassing clouds.7 mph79%29.80 "HgN/A
5:00 PM86 °FBroken clouds.12 mph75%29.80 "HgN/A
4:00 PM88 °FScattered clouds.14 mph66%29.80 "HgN/A
Weather by CustomWeather, © 2016

See weather overviewHow to use our weather pages